C/2016 N6 ( PanSTARRS )

Japanese version
Home page
Updated on July 9, 2019

---------------------------------------------------------------------

* Profile

Discovery Date July 14, 2016
Magnitude 20.7 mag
Discoverer Pan-STARRS 1 telescope (Haleakala)

* Pictures

* Orbital Elements

Epoch 2018 July 21.0 TT = JDT 2458320.5
T 2018 July 18.21074 TT                                 MPCW
q   2.6690700            (2000.0)            P               Q
z  +0.0004679      Peri.  162.80588     -0.53335001     +0.08479690
 +/-0.0000001      Node   298.97625     +0.61778912     +0.71869304
e   0.9987513      Incl.  105.83230     +0.57781863     -0.69013752
From 2958 observations 2016 June 27-2019 May 6, mean residual 0".4.

* Finding Charts

* Magnitudes Graph

        m1 = 3.5 + 5 log d + 14.0 log r

---------------------------------------------------------------------

The orbital elements are published on M.P.E.C. 2019-J142.
The charts are made with StellaNavigator Ver.10 (AstroArts).
The magnitudes graphs are made with Comet for Windows.

---------------------------------------------------------------------

Copyright(C) Seiichi Yoshida (comet@aerith.net). All rights reserved.